^^
Datos históricos de la estación: Murcia-Puente Tocinos
 
Diario Informe para Septiembre 27, 2022 Unidades:  Métrico    Ingés   Ambas
Diario Semanal Mensual Anual
  Actual: Máxima: Mínima: Promedio:
Temperatura: 17.2 °C 18.6 °C 16.9 °C 17.8 °C
Punto de rocio: 15.2 °C 17.3 °C 15 °C 16.4 °C
Humedad: 87.9% 92.6% 87.9% 91%
Velocidad viento: 4.5km/h 6.4km/h 0km/h 3.3km/h
Racha viento: 8.4km/h 11.1km/h - -
VientoSSO - - SO
Presión: 1013.9 hPa 1014.1 hPa 1013.0 hPa -
Precipitación: 0.2 mm      
 
 
Tabla de datos para Septiembre 27, 2022
Hora Temperatura Punto de rocio Presión Viento Velocidad viento Racha viento Humedad Intensidad lluvia(por hora) Nubes
00:04 18.4 °C 17 °C 1013.9 hPa Calm   3.7 km/h 92% 0.0 mm
00:09 18.4 °C 17.1 °C 1013.9 hPa Calm   3.9 km/h 92% 0.0 mm
00:14 18.4 °C 17.1 °C 1013.9 hPa Calm   4.7 km/h 92% 0.0 mm
00:19 18.4 °C 17.1 °C 1014.0 hPa Calm     92% 0.0 mm
00:24 18.4 °C 17.1 °C 1014.0 hPa Calm     92% 0.0 mm
00:29 18.4 °C 17.1 °C 1014.0 hPa Calm     92% 0.0 mm
00:34 18.5 °C 17.1 °C 1014.1 hPa Calm   5.6 km/h 92% 0.0 mm
00:39 18.5 °C 17.2 °C 1014.1 hPa Calm   3.7 km/h 92% 0.0 mm
00:44 18.4 °C 17.1 °C 1014.1 hPa Calm     92% 0.0 mm
00:49 18.4 °C 17.1 °C 1014.1 hPa Calm   5.6 km/h 92% 0.0 mm
00:54 18.5 °C 17.2 °C 1014.1 hPa ESE 1.4 km/h 7.4 km/h 92.5% 0.0 mm
00:59 18.6 °C 17.3 °C 1014.1 hPa Este 2.3 km/h 3.7 km/h 92% 0.0 mm
01:04 18.6 °C 17.3 °C 1014.1 hPa SSE 0.7 km/h 2.3 km/h 92% 0.0 mm
01:09 18.6 °C 17.2 °C 1014.1 hPa Calm   5.8 km/h 92% 0.0 mm
01:14 18.5 °C 17.2 °C 1014.1 hPa Sur 1.4 km/h 5.6 km/h 92% 0.0 mm
01:19 18.5 °C 17.2 °C 1014.1 hPa Sur 2.3 km/h 5.8 km/h 92% 0.0 mm
01:24 18.5 °C 17.2 °C 1013.8 hPa SSO 2.9 km/h 5.6 km/h 92% 0.0 mm
01:29 18.5 °C 17.2 °C 1013.8 hPa SSO 3.2 km/h 7.6 km/h 92% 0.0 mm
01:34 18.6 °C 17.3 °C 1013.8 hPa SO 3.6 km/h 7.4 km/h 92% 0.0 mm
01:39 18.6 °C 17.3 °C 1013.8 hPa SO 3.9 km/h 7.4 km/h 92% 0.0 mm
01:44 18.6 °C 17.3 °C 1013.8 hPa SO 3.5 km/h 5.6 km/h 91.9% 0.0 mm
01:49 18.6 °C 17.2 °C 1013.8 hPa SO 3.2 km/h 5.8 km/h 91.4% 0.0 mm
01:54 18.6 °C 17.1 °C 1013.6 hPa SO 3.2 km/h 7.6 km/h 91% 0.0 mm
01:59 18.6 °C 17.1 °C 1013.6 hPa SO 3.2 km/h 7.4 km/h 91% 0.0 mm
02:04 18.6 °C 17.1 °C 1013.5 hPa SO 3.6 km/h 7.4 km/h 91% 0.0 mm
02:09 18.6 °C 17.1 °C 1013.5 hPa OSO 3.9 km/h 5.6 km/h 91% 0.0 mm
02:14 18.6 °C 17.1 °C 1013.5 hPa OSO 2.9 km/h 4.7 km/h 91% 0.0 mm
02:19 18.6 °C 17.1 °C 1013.6 hPa OSO 2.3 km/h 3.7 km/h 91% 0.0 mm
02:24 18.6 °C 17.1 °C 1013.6 hPa OSO 0.9 km/h 3.2 km/h 91% 0.0 mm
02:29 18.6 °C 17.1 °C 1013.6 hPa Calm   3.9 km/h 91% 0.0 mm
02:34 18.6 °C 17.1 °C 1013.6 hPa Calm   4.7 km/h 91% 0.0 mm
02:39 18.5 °C 17 °C 1013.6 hPa Calm     91% 0.0 mm
02:44 18.4 °C 16.9 °C 1013.6 hPa Calm   6.9 km/h 91% 0.0 mm
02:49 18.4 °C 16.9 °C 1013.6 hPa Calm   9.5 km/h 91% 0.0 mm
02:54 18.4 °C 17 °C 1013.4 hPa SO 2.8 km/h 7.4 km/h 91.6% 0.0 mm
02:59 18.3 °C 17 °C 1013.4 hPa OSO 4.7 km/h 7.4 km/h 92% 0.0 mm
03:04 18.3 °C 17 °C 1013.5 hPa OSO 3.7 km/h 5.8 km/h 92% 0.0 mm
03:09 18.3 °C 17 °C 1013.5 hPa OSO 3.2 km/h 5.6 km/h 92% 0.0 mm
03:14 18.3 °C 17 °C 1013.5 hPa Oeste 3 km/h 5.8 km/h 92% 0.0 mm
03:19 18.2 °C 16.9 °C 1013.5 hPa Oeste 2.9 km/h 7.6 km/h 92% 0.0 mm
03:24 18.1 °C 16.8 °C 1013.5 hPa OSO 3.1 km/h 7.4 km/h 92% 0.0 mm
03:29 18.1 °C 16.7 °C 1013.5 hPa OSO 3.2 km/h 9.3 km/h 92% 0.0 mm
03:34 18 °C 16.7 °C 1013.5 hPa SO 3.6 km/h 7.4 km/h 92% 0.0 mm
03:39 17.9 °C 16.6 °C 1013.4 hPa OSO 3.9 km/h 7.6 km/h 92% 0.0 mm
03:44 17.9 °C 16.6 °C 1013.4 hPa OSO 3.9 km/h 7.4 km/h 92% 0.0 mm
03:49 17.9 °C 16.6 °C 1013.4 hPa OSO 3.9 km/h 7.6 km/h 92% 0.0 mm
03:54 17.9 °C 16.6 °C 1013.4 hPa OSO 4.3 km/h 8.4 km/h 92% 0.0 mm
03:59 17.9 °C 16.6 °C 1013.4 hPa OSO 4.7 km/h 8.4 km/h 92% 0.0 mm
04:04 17.9 °C 16.6 °C 1013.3 hPa SO 4.9 km/h 8.4 km/h 92% 0.0 mm
04:09 17.9 °C 16.6 °C 1013.3 hPa SO 5 km/h 9.3 km/h 92% 0.0 mm
04:14 17.9 °C 16.6 °C 1013.3 hPa SO 5 km/h 9.5 km/h 92% 0.0 mm
04:19 17.9 °C 16.6 °C 1013.3 hPa SO 5 km/h 7.4 km/h 92% 0.0 mm
04:24 17.9 °C 16.6 °C 1013.3 hPa SO 3.9 km/h 7.4 km/h 92% 0.0 mm
04:29 17.9 °C 16.6 °C 1013.3 hPa SO 3.2 km/h 7.6 km/h 92% 0.0 mm
04:34 17.8 °C 16.5 °C 1013.3 hPa SO 3.6 km/h 7.6 km/h 92% 0.0 mm
04:39 17.8 °C 16.5 °C 1013.1 hPa SO 3.9 km/h 9.3 km/h 92% 0.0 mm
04:44 17.8 °C 16.5 °C 1013.1 hPa SO 4.4 km/h 7.4 km/h 91.9% 0.0 mm
04:49 17.8 °C 16.3 °C 1013.1 hPa SO 4.7 km/h 7.4 km/h 91% 0.0 mm
04:54 17.7 °C 16.2 °C 1013.0 hPa SO 4.2 km/h 8.4 km/h 91% 0.0 mm
04:59 17.7 °C 16.2 °C 1013.0 hPa SSO 3.9 km/h 11.1 km/h 91% 0.0 mm
05:04 17.7 °C 16.2 °C 1013.1 hPa SSO 5.5 km/h 8.7 km/h 91% 0.0 mm
05:09 17.7 °C 16.2 °C 1013.1 hPa SSO 6.4 km/h 9.3 km/h 91% 0.0 mm
05:14 17.7 °C 16.2 °C 1013.1 hPa SSO 6.1 km/h 7.6 km/h 91.1% 0.2 mm
05:19 17.7 °C 16.4 °C 1013.2 hPa SO 5.8 km/h 9.5 km/h 92% 0.2 mm
05:24 17.6 °C 16.3 °C 1013.2 hPa SO 5.3 km/h 11.1 km/h 92% 0.2 mm
05:29 17.6 °C 16.3 °C 1013.2 hPa SO 5 km/h 11.1 km/h 92% 0.2 mm
05:34 17.6 °C 16.2 °C 1013.3 hPa OSO 5 km/h 7.4 km/h 92% 0.2 mm
05:39 17.5 °C 16.1 °C 1013.3 hPa OSO 5 km/h 7.4 km/h 92% 0.2 mm
05:44 17.4 °C 16.1 °C 1013.3 hPa SO 3.7 km/h 5.8 km/h 92% 0.2 mm
05:49 17.4 °C 16.1 °C 1013.3 hPa SO 2.9 km/h 7.4 km/h 92% 0.2 mm
05:54 17.4 °C 16.1 °C 1013.3 hPa SO 3.1 km/h 7.4 km/h 92% 0.2 mm
05:59 17.4 °C 16.1 °C 1013.3 hPa SO 3.2 km/h 7.6 km/h 92% 0.2 mm
06:04 17.4 °C 16.2 °C 1013.3 hPa SO 4.2 km/h 7.4 km/h 92.6% 0.2 mm
06:09 17.4 °C 16.1 °C 1013.3 hPa SSO 4.7 km/h 7.4 km/h 92.1% 0.2 mm
06:14 17.4 °C 16.1 °C 1013.3 hPa Sur 4.7 km/h 8.4 km/h 92% 0.2 mm
06:19 17.4 °C 16.1 °C 1013.3 hPa Sur 4.7 km/h 8.4 km/h 92% 0.0 mm
06:24 17.4 °C 16.1 °C 1013.3 hPa Sur 4.9 km/h 9.3 km/h 92% 0.0 mm
06:29 17.3 °C 16.1 °C 1013.3 hPa Sur 5 km/h 9.5 km/h 92% 0.0 mm
06:34 17.3 °C 16 °C 1013.3 hPa SSO 5.5 km/h 9.5 km/h 92% 0.0 mm
06:39 17.3 °C 16 °C 1013.2 hPa SSO 5.8 km/h 9.3 km/h 92% 0.0 mm
06:44 17.2 °C 15.9 °C 1013.2 hPa SSO 5.3 km/h 9.5 km/h 92% 0.0 mm
06:49 17.2 °C 15.9 °C 1013.3 hPa SSO 5 km/h 9.3 km/h 92% 0.0 mm
06:54 17.2 °C 15.8 °C 1013.3 hPa Sur 5.5 km/h 9.5 km/h 92% 0.0 mm
06:59 17.1 °C 15.8 °C 1013.3 hPa SO 5.8 km/h 7.4 km/h 92% 0.0 mm
07:04 17.1 °C 15.7 °C 1013.4 hPa SO 5 km/h 9.3 km/h 91.3% 0.0 mm
07:09 17.1 °C 15.6 °C 1013.4 hPa SO 4.7 km/h 8.7 km/h 91% 0.0 mm
07:14 17.1 °C 15.6 °C 1013.4 hPa SO 4.9 km/h 9.3 km/h 91% 0.0 mm
07:19 17.1 °C 15.5 °C 1013.4 hPa OSO 5 km/h 7.4 km/h 90.6% 0.0 mm
07:24 17.1 °C 15.4 °C 1013.3 hPa Oeste 4.3 km/h 5.8 km/h 90% 0.0 mm
07:29 17.1 °C 15.4 °C 1013.3 hPa OSO 3.9 km/h 7.4 km/h 90% 0.0 mm
07:34 17 °C 15.3 °C 1013.6 hPa SO 2.9 km/h 5.6 km/h 90% 0.0 mm
07:39 17 °C 15.2 °C 1013.6 hPa OSO 2.3 km/h 3.7 km/h 89.5% 0.0 mm
07:44 16.9 °C 15.1 °C 1013.6 hPa OSO 0.9 km/h 5 km/h 89% 0.0 mm
07:49 16.9 °C 15.1 °C 1013.6 hPa Calm   5.8 km/h 89% 0.0 mm
07:54 16.9 °C 15.1 °C 1013.6 hPa SSO 1.4 km/h 3.9 km/h 89% 0.0 mm
07:59 16.9 °C 15 °C 1013.6 hPa SO 2.3 km/h 7.6 km/h 88.7% 0.0 mm
08:04 17 °C 15 °C 1013.8 hPa SSE 2.7 km/h 7.4 km/h 88% 0.0 mm
08:09 17.2 °C 15.1 °C 1013.8 hPa SSE 2.9 km/h 9.5 km/h 88% 0.0 mm
08:14 17.2 °C 15.2 °C 1013.8 hPa Sur 4.7 km/h 10 km/h 88% 0.0 mm
08:19 17.1 °C 15.1 °C 1013.8 hPa Sur 5.8 km/h 10 km/h 87.9% 0.0 mm
08:24 17.1 °C 15.1 °C 1013.7 hPa SSO 5.8 km/h 7.6 km/h 88% 0.0 mm
08:29 17.1 °C 15.1 °C 1013.7 hPa SSO 5.8 km/h 7.6 km/h 88% 0.0 mm
08:34 17.1 °C 15.1 °C 1013.9 hPa SO 4.6 km/h 9.5 km/h 88% 0.0 mm
08:39 17.1 °C 15.1 °C 1013.9 hPa SSO 3.9 km/h 9.3 km/h 88% 0.0 mm
08:44 17.2 °C 15.2 °C 1013.9 hPa SSO 4.5 km/h 8.4 km/h 87.9% 0.0 mm
Murcia-Puente Tocinos, Espa?a
Compliments of Weather Underground - 2 mb

La estación de MeteoMurcia.com, publica sus datos en los siguientes proyectos:

Weather Underground PWS IMURCIAP2 Meteoclimatic www.awekas.at

Web Analytics

Clicky